Flag for Germany Weather past 2 weeks in Brühl (Rhineland), North Rhine-Westphalia, Germany

Now
59 °F

Partly sunny.


Feels Like: 59 °F
Forecast: 54 / 67 °F
Wind: 2 mph from West

Location: Noervenich

Current Time: Jul 29, 2015 at 6:20:50 PM

Latest Report: Jul 29, 2015 at 4:00 PM


Visibility: 13 mi

Pressure: 29.82 "Hg

Humidity: 69%

Dew point: 49 °F

Location of Brühl (Rhineland)Location

Historic Weather in Brühl (Rhineland) — Graph

°F

Brühl (Rhineland) temperature yesterday

Maximum temperature yesterday: 65 °F (at 1:00 PM)
Minimum temperature yesterday: 55 °F (at 4:00 AM)
Average temperature yesterday: 60 °F

Past Weeks' High & Low Weather Summary

 TemperatureHumidityPressure
High93 °F (Jul 17, 6:00 PM)99% (Jul 19, 7:00 AM)30.13 "Hg (Jul 19, 7:00 AM)
Low50 °F (Jul 26, 7:00 AM)24% (Jul 17, 4:00 PM)29.53 "Hg (Jul 25, 8:00 AM)
Average67 °F71%29.90 "Hg
* Reported Jul 14 4:00 PM — Jul 29 4:00 PM, Brühl (Rhineland), Weather by CustomWeather, © 2015

Note: Actual official high and low records may vary slightly from our data, if they occured in-between our weather recording intervals... More about our weather records

Advertising

Brühl (Rhineland) weather history for previous 24 hours

 ConditionsComfort  
Time TempWeatherWind HumidityBarometerVisibility
4:00 PM
Wed, Jul 29
59 °FPartly sunny.2 mph69%29.82 "Hg12 mi
3:00 PM60 °FOvercast.3 mph64%29.80 "Hg12 mi
2:00 PM64 °FOvercast.8 mph47%29.78 "Hg22 mi
1:00 PM65 °FScattered clouds.8 mph46%29.77 "Hg19 mi
12:00 PM63 °FPartly sunny.8 mph52%29.77 "Hg19 mi
10:00 AM55 °FPartly sunny.2 mph86%29.79 "Hg16 mi
9:00 AM55 °FSprinkles. Overcast.6 mph84%29.79 "Hg16 mi
8:00 AM54 °FPartly sunny.3 mph86%29.80 "Hg16 mi
7:00 AM54 °FOvercast.3 mph80%29.80 "Hg16 mi
6:00 AM54 °FOvercast.3 mph77%29.80 "Hg12 mi
4:00 AM54 °FPassing clouds.5 mph79%29.81 "Hg16 mi
3:00 AM54 °FPassing clouds.5 mph77%29.80 "Hg16 mi
1:00 AM55 °FPassing clouds.3 mph72%29.81 "Hg16 mi
12:00 AM56 °FPassing clouds.3 mph71%29.81 "Hg16 mi
10:00 PM
Tue, Jul 28
59 °FPassing clouds.5 mph66%29.79 "Hg19 mi
9:00 PM62 °FOvercast.6 mph61%29.78 "Hg22 mi
8:00 PM62 °FOvercast.7 mph56%29.78 "Hg22 mi
7:00 PM63 °FOvercast.7 mph55%29.77 "Hg22 mi
6:00 PM64 °FOvercast.7 mph53%29.76 "Hg22 mi
Weather by CustomWeather, © 2015

See weather overviewHow to use our weather pages